Location: Briis
(48.6240°N, 2.1211°E)
Time: 07:15:28
(UTC+00:00)

USA 308 - Pass Details

Date: 25 September 2020
Orbit: 569 x 581 km, 54.0° (Epoch: 19 October)

Event Time Altitude Azimuth Distance (km) Brightness Sun altitude
Exits shadow 04:48:20 - 296° (WNW) 2,033 5.2 -9.8°
Reaches altitude 10° 04:48:45 10° 298° (WNW) 1,874 5.1 -9.7°
Maximum altitude 04:52:51 45° 12° (NNE) 780 3.8 -9.1°
Drops below altitude 10° 04:56:58 10° 86° (E) 1,873 7.3 -8.4°
Sets 04:59:17 0° 93° (E) 2,771 8.5 -8.0°
